This is the latest recevied weather packets stored in our database for station/object KC3DGM. If no packets are shown the sender has not sent any weather packets the latest 10 day(s).
| Time | Temp. | Humidity | Pressure | Rain* | Wind** | Luminosity | Snow |
|---|---|---|---|---|---|---|---|
| 1778076755 | 9.44° C | 95% | 980.2 hPa | 0 mm | - | 127 W/m² | - |
| 1778076453 | 8.89° C | 96% | 980.3 hPa | 0 mm | - | 109 W/m² | - |
| 1778076149 | 8.89° C | 96% | 980.4 hPa | 0 mm | - | 86 W/m² | - |
| 1778075846 | 8.89° C | 97% | 980.1 hPa | 0 mm | - | 69 W/m² | - |
| 1778075542 | 8.89° C | 97% | 980.2 hPa | 0 mm | - | 69 W/m² | - |
| 1778075240 | 8.89° C | 98% | 980.2 hPa | 0 mm | - | 127 W/m² | - |
| 1778074936 | 8.89° C | 98% | 980 hPa | 0 mm | - | 122 W/m² | - |
| 1778074633 | 8.89° C | 98% | 980.1 hPa | 0 mm | - | 62 W/m² | - |
| 1778074329 | 8.89° C | 98% | 979.7 hPa | 0 mm | - | 59 W/m² | - |
| 1778074027 | 8.33° C | 98% | 979.6 hPa | 0 mm | - | 73 W/m² | - |
| 1778073724 | 8.89° C | 98% | 979.7 hPa | 0 mm | - | 63 W/m² | - |
| 1778073421 | 8.89° C | 98% | 979.6 hPa | 0 mm | - | 66 W/m² | - |
| 1778073117 | 8.89° C | 99% | 979.4 hPa | 0 mm | - | 85 W/m² | - |
| 1778072814 | 8.33° C | 99% | 979.4 hPa | 0 mm | - | 72 W/m² | - |
| 1778072512 | 8.33° C | 99% | 979.5 hPa | 0 mm | - | 67 W/m² | - |
| 1778072210 | 8.33° C | 99% | 979.5 hPa | 0 mm | - | 47 W/m² | - |
| 1778071907 | 8.33° C | 99% | 979.3 hPa | 0 mm | - | 27 W/m² | - |
| 1778071605 | 8.33° C | 99% | 979.5 hPa | 0 mm | - | 37 W/m² | - |
| 1778071302 | 8.33° C | 99% | 979.5 hPa | 0 mm | - | 46 W/m² | - |
| 1778071000 | 8.33° C | 99% | 979.4 hPa | 0 mm | - | 31 W/m² | - |
| 1778070699 | 8.33° C | 99% | 979.4 hPa | 0 mm | - | 34 W/m² | - |
| 1778070395 | 8.33° C | 99% | 979.2 hPa | 0 mm | - | 35 W/m² | - |
| 1778070093 | 8.33° C | 99% | 979.6 hPa | 0 mm | - | 23 W/m² | - |
| 1778069790 | 8.33° C | 99% | 979.4 hPa | 0 mm | - | 26 W/m² | - |
| 1778069486 | 8.33° C | 99% | 979.5 hPa | 0 mm | - | 32 W/m² | - |
* Rain latest hour (hover to see other rain measurements)
** Current wind speed in m/s (hover to see current wind gust speed)